RH
20 22 34 41 46 58 65 70 70 69 69 71 69 72 65 65 67 67 61 59 61 58 63 60 66 63 67 69 74 77 79 79 77 71 72 84 88 80 70 62 54 40 41 37
18 30 30 35 44 60 66 72 68 65 66 72 71 72 69 65 58 60 62 67 66 67 62 57 59 64 66 69 71 73 74 77 72 71 75 80 84 79 75 73 63 44 42 44
23 29 35 35 45 58 65 65 61 57 64 67 65 66 66 65 61 56 57 66 67 64 64 55 54 59 61 68 71 73 75 77 71 69 74 69 73 80 81 74 59 51 47 49
24 27 34 42 46 54 55 55 53 58 61 64 56 64 58 61 59 58 54 60 63 67 68 69 60 54 55 58 70 72 75 77 75 67 70 68 65 73 77 73 65 56 48 53
21 24 31 39 39 48 45 44 50 53 60 61 58 67 54 56 58 54 52 50 57 62 66 67 65 56 47 51 58 69 73 76 74 68 68 69 71 72 75 67 65 63 57 57
18 19 26 29 32 35 42 44 46 61 66 68 54 64 56 53 50 49 48 45 51 55 60 66 71 67 48 47 50 60 66 72 73 67 64 66 69 74 75 68 71 76 62 68
18 19 24 26 30 29 33 39 40 49 63 63 60 60 51 44 43 45 43 43 44 52 51 57 67 69 56 57 49 48 54 60 62 58 57 58 61 64 68 68 70 71 63 59
22 25 24 25 26 23 24 26 35 41 52 47 54 53 44 47 44 39 36 38 40 46 45 48 57 63 63 64 57 50 50 56 54 56 56 57 57 56 57 58 61 68 65 63
26 28 26 26 24 23 27 27 29 34 41 49 53 50 46 47 46 43 38 38 38 40 40 36 40 53 62 68 60 64 63 54 55 52 50 53 55 59 59 63 66 68 66 69
27 26 25 26 24 20 25 29 29 34 42 49 50 54 53 48 46 43 41 39 41 41 45 46 39 34 48 56 65 68 69 67 67 61 57 49 49 53 58 60 60 61 66 68
32 30 28 27 30 29 26 26 29 33 39 51 53 49 41 43 46 47 45 43 44 46 44 40 43 39 33 32 40 51 56 64 67 71 70 61 51 47 48 52 54 52 57 63
33 35 33 27 28 31 28 27 26 35 33 47 51 45 36 38 46 47 51 52 45 46 47 46 45 41 33 32 36 36 39 44 51 62 65 70 67 56 49 47 47 48 49 57
33 35 36 33 33 31 36 34 34 39 38 44 48 44 34 35 40 43 46 46 48 47 44 44 45 41 39 36 33 36 39 42 40 46 62 68 72 71 68 56 48 48 49 52
35 37 34 37 35 35 35 37 39 39 44 42 46 39 35 34 35 36 39 43 44 41 40 40 40 39 38 39 37 37 38 36 42 41 43 59 67 74 79 78 64 49 50 52
37 36 36 36 34 35 34 37 39 39 41 41 38 42 39 37 35 34 32 34 38 37 34 37 39 41 42 41 37 37 40 41 39 42 43 42 54 65 83 79 80 72 60 56
40 40 39 37 35 37 35 34 37 38 42 40 43 43 38 34 36 37 36 36 33 36 40 42 44 43 41 41 38 38 35 41 49 42 48 47 45 54 63 74 76 81 74 69
47 45 43 41 40 38 40 33 34 36 40 40 43 39 35 35 37 37 38 36 34 38 40 39 40 41 37 35 39 51 50 52 50 42 39 50 50 48 58 69 82 84 95 87
46 51 51 47 46 47 37 37 36 35 33 36 38 35 33 32 36 40 39 36 37 35 34 36 35 34 34 35 39 44 53 54 54 50 41 38 46 57 61 73 80 87 91 79
46 53 55 55 54 46 39 38 38 38 37 34 32 33 34 36 40 39 37 40 38 37 35 32 35 37 36 41 43 45 45 43 42 43 38 37 38 43 49 54 60 64 71 72
43 53 56 64 58 57 45 42 39 37 41 37 35 36 35 38 45 41 39 37 38 39 39 38 39 42 43 44 46 46 42 37 33 35 37 36 36 40 43 45 47 56 58 60
47 48 57 64 62 57 51 48 42 41 38 36 38 37 39 43 43 41 40 41 43 43 42 39 41 46 52 53 51 48 42 39 36 35 36 40 40 40 46 46 45 47 51 56
44 49 53 61 65 60 52 50 43 42 41 43 44 41 42 42 42 43 45 44 44 40 34 39 46 50 51 50 47 42 37 38 43 43 42 43 44 45 47 51 52 52 54 58
55 53 54 51 58 61 56 51 49 48 47 45 44 44 44 46 48 44 40 40 39 40 43 45 45 46 46 44 40 40 50 50 48 49 55 51 49 50 51 53 55 57 59 63
58 59 58 53 49 55 59 54 51 51 52 52 50 47 47 47 47 41 38 39 38 38 45 46 47 47 45 45 50 55 55 51 52 55 60 64 62 59 58 58 59 59 61 62
72 67 64 62 56 57 60 55 53 52 54 57 54 48 51 48 45 42 39 39 43 42 45 42 41 42 48 53 61 61 60 63 66 66 67 72 69 69 72 69 65 64 63 66
79 68 67 70 64 62 61 65 58 57 54 58 58 59 56 50 47 46 42 36 37 38 38 48 63 86 91 91 85 83 82 76 74 71 68 73 78 80 78 77 74 70 71 72